BURSTCUBE

导读

BURSTCUBE(爆裂立方)是美国研制的微型立方体卫星,于1998年11月20日发射升空。这颗鞋盒大小的卫星由NASA主导开发,核心任务是探测、定位并研究宇宙中极端的短伽马射线暴现象,助力人类理解高能宇宙爆炸的物理机制,推动多信使天文学领域的研究发展。作为早期微型卫星探索的代表,它验证了微小卫星开展深空天文观测的可行性,为后续立方体卫星技术发展积累了关键经验。

Basic Information
目录编号:
59562
目录名称:
BURSTCUBE
国际标识:
1998-067WM
轨道中心:
EARTH
卫星名称:
BURSTCUBE
卫星全名:
--
卫星状态:
已陨落 最后检测时间 2024-09-17
发射日期:
1998-11-20 UTC
国别 :
美国 (US)
星等 :
--
Orbit Information
数据来源 国际轨道数据
星历时间: 2024-09-17T10:24:40+0800
轨道信息已过期665天
半长轴: 6563.922km
偏心率: 0.0002977
轨道倾角: 51.598°
近地点辐角 212.949°
升交点赤经 201.287°
平近点角 147.135°
近地点: 183.832km
远地点: 187.742km
周期: 88.207分钟
每日圈数: 16.325168
Detailed Information
使用方式:
暂无